DW7076 Floda SE current weather conditions

sailwx.info

Wind from 347

Air temperature 27.8° C
Dewpoint 16.7° C

Last reported at 2014-Jul-22 16:46 UTC.
Time now 2014-Jul-22 17:30 UTC

Location: N 57°49' E 012°21'.
View on Google Maps.

See reports from other nearby stations

  
Tides and Currents Weather Stations Pressure Air Temp Water Temp Dewpoint Dewpoint Depression Visibility Wind Speed Wind Dir Waves Ship Positions
date/time (UTC)wind fromknots sea level pressurealtimeterstation pressurevisibilityair tempwater tempwave heightnotes
2014-Jul-22 16:46 347 27.8
2014-Jul-22 16:36 344 28.3
2014-Jul-22 16:26 061 0 gusting 2 28.9
2014-Jul-22 16:16 076 1 gusting 2 29.4
2014-Jul-22 16:06 328 0 gusting 5 29.4
2014-Jul-22 15:56 072 1 gusting 2 29.4
2014-Jul-22 15:36 055 28.3
2014-Jul-22 15:26 071 28.9
2014-Jul-22 15:16 070 0 gusting 2 28.9
2014-Jul-22 15:06 013 29.4
2014-Jul-22 14:56 234 0 gusting 4 29.4
2014-Jul-22 14:46 028 29.4
2014-Jul-22 14:36 090 1 gusting 5 30.0
2014-Jul-22 14:26 332 1 gusting 4 30.6
2014-Jul-22 14:16 038 1 gusting 7 30.0
2014-Jul-22 14:06 319 0 gusting 6 30.6
2014-Jul-22 13:56 062 1 gusting 4 30.0
2014-Jul-22 13:46 312 2 gusting 6 29.4
2014-Jul-22 13:36 312 4 gusting 10 29.4
2014-Jul-22 13:26 325 1 gusting 2 29.4
2014-Jul-22 13:16 019 0 gusting 2 29.4
2014-Jul-22 13:06 074 1 gusting 4 30.6
2014-Jul-22 12:56 311 1 gusting 6 29.4
2014-Jul-22 12:46 030 0 gusting 2 30.0
2014-Jul-22 12:36 061 1 gusting 2 30.0
2014-Jul-22 12:26 074 0 gusting 4 29.4
2014-Jul-22 12:16 117 1 gusting 2 29.4
2014-Jul-22 12:06 318 0 gusting 5 28.9
2014-Jul-22 11:46 281 0 gusting 2 28.3
2014-Jul-22 11:36 083 29.4
2014-Jul-22 11:26 122 0 gusting 1 28.3
2014-Jul-22 11:16 352 26.7
2014-Jul-22 11:06 330 2 gusting 8 27.8
2014-Jul-22 10:56 005 0 gusting 2 27.2
2014-Jul-22 10:46 332 0 gusting 4 27.2
2014-Jul-22 10:36 325 0 gusting 2 27.8
2014-Jul-22 10:26 111 0 gusting 2 27.8
2014-Jul-22 10:16 022 27.8
2014-Jul-22 10:06 046 1 gusting 2 27.2
2014-Jul-22 09:56 346 1 gusting 4 28.3
2014-Jul-22 09:36 263 0 gusting 2 27.8
2014-Jul-22 09:26 340 0 gusting 5 27.8
2014-Jul-22 09:16 028 27.8
2014-Jul-22 09:06 335 2 gusting 6 26.7
2014-Jul-22 08:56 336 1 gusting 6 26.7
2014-Jul-22 08:36 024 0 gusting 2 26.1
2014-Jul-22 08:26 317 26.1
2014-Jul-22 08:16 005 25.6
2014-Jul-22 08:06 141 25.6
2014-Jul-22 07:56 031 1 gusting 2 25.0
2014-Jul-22 07:46 021 0 gusting 2 25.0
2014-Jul-22 07:36 026 0 gusting 1 24.4
2014-Jul-22 07:26 063 24.4
2014-Jul-22 07:16 063 23.9
2014-Jul-22 07:06 063 23.3
2014-Jul-22 06:56 063 0 gusting 1 23.3
2014-Jul-22 06:36 063 21.7
2014-Jul-22 06:26 063 21.1
2014-Jul-22 06:16 063 20.6
2014-Jul-22 06:06 063 19.4
2014-Jul-22 05:56 063 17.2
2014-Jul-22 05:46 063 16.1
2014-Jul-22 05:36 063 15.6
2014-Jul-22 05:26 063 15.6
2014-Jul-22 05:16 063 15.0
2014-Jul-22 05:06 063 15.0
2014-Jul-22 04:56 063 14.4
2014-Jul-22 04:46 063 14.4
2014-Jul-22 04:26 063 14.4
2014-Jul-22 04:16 063 14.4
2014-Jul-22 03:56 063 14.4
2014-Jul-22 03:46 063 14.4
2014-Jul-22 03:36 063 13.9
2014-Jul-22 03:26 063 14.4
2014-Jul-22 03:16 063 14.4
2014-Jul-22 03:06 063 14.4
2014-Jul-22 02:56 063 14.4
2014-Jul-22 02:46 063 14.4
2014-Jul-22 02:36 063 14.4
2014-Jul-22 02:26 063 14.4
2014-Jul-22 02:16 063 14.4
2014-Jul-22 02:06 063 15.0
2014-Jul-22 01:46 063 15.0
2014-Jul-22 01:36 063 15.0
2014-Jul-22 01:26 063 15.0
2014-Jul-22 01:16 063 15.0
2014-Jul-22 01:06 063 15.0
2014-Jul-22 00:56 063 15.6
2014-Jul-22 00:46 063 15.6
2014-Jul-22 00:36 063 15.6
2014-Jul-22 00:26 063 15.6
2014-Jul-22 00:16 063 15.6
2014-Jul-21 23:56 063 16.1
2014-Jul-21 23:46 063 16.1
2014-Jul-21 23:36 063 16.1
2014-Jul-21 23:26 063 16.7
2014-Jul-21 23:16 063 16.7
2014-Jul-21 23:06 063 16.7
2014-Jul-21 22:56 063 17.2
2014-Jul-21 22:46 063 17.2
2014-Jul-21 22:36 063 17.8
2014-Jul-21 22:26 063 17.8
2014-Jul-21 22:06 063 18.3
2014-Jul-21 21:56 063 18.9
2014-Jul-21 21:46 063 18.9
2014-Jul-21 21:36 063 18.9
2014-Jul-21 21:26 063 19.4
2014-Jul-21 21:06 063 20.0
2014-Jul-21 20:56 063 20.6
2014-Jul-21 20:46 063 20.6
2014-Jul-21 20:36 063 21.1
2014-Jul-21 20:26 063 21.7
2014-Jul-21 20:16 063 21.7
2014-Jul-21 20:06 063 22.2
2014-Jul-21 19:56 063 22.2
2014-Jul-21 19:36 063 23.3
2014-Jul-21 19:16 063 23.9
2014-Jul-21 18:46 063 25.6
2014-Jul-21 18:36 063 25.6
2014-Jul-21 18:26 063 26.1
2014-Jul-21 18:16 063 26.7
2014-Jul-21 18:06 063 27.2
2014-Jul-21 17:56 059 0 gusting 1 27.8
2014-Jul-21 17:36 059 27.8
2014-Jul-21 17:26 059 1 gusting 2 28.3
2014-Jul-21 17:16 061 0 gusting 2 28.3
2014-Jul-21 17:06 067 1 gusting 2 28.9
2014-Jul-21 16:56 080 0 gusting 2 28.3
2014-Jul-21 16:46 077 1 gusting 2 28.3
2014-Jul-21 16:36 077 0 gusting 1 28.9
2014-Jul-21 16:26 077 29.4
2014-Jul-21 16:16 081 1 gusting 2 29.4
2014-Jul-21 16:06 078 1 gusting 4 28.9
2014-Jul-21 15:56 049 28.3
2014-Jul-21 15:46 036 28.3
2014-Jul-21 15:36 036 28.9
2014-Jul-21 15:26 023 1 gusting 2 29.4
2014-Jul-21 15:16 106 0 gusting 4 29.4
2014-Jul-21 15:06 098 1 gusting 2 29.4
2014-Jul-21 14:56 100 0 gusting 2 29.4
2014-Jul-21 14:46 068 0 gusting 2 28.3
2014-Jul-21 14:36 078 29.4
2014-Jul-21 14:26 088 2 gusting 4 30.0
2014-Jul-21 14:16 114 1 gusting 5 30.0
2014-Jul-21 14:06 080 0 gusting 2 30.0
2014-Jul-21 13:56 065 1 gusting 4 29.4
2014-Jul-21 13:36 067 1 gusting 2 29.4
2014-Jul-21 13:26 067 1 gusting 2 28.3
2014-Jul-21 13:16 192 0 gusting 2 28.9
2014-Jul-21 13:06 131 0 gusting 2 28.9
2014-Jul-21 12:56 073 1 gusting 2 28.9
2014-Jul-21 12:46 127 1 gusting 6 29.4
2014-Jul-21 12:36 077 2 gusting 6 28.9
2014-Jul-21 12:26 086 0 gusting 5 27.8
2014-Jul-21 12:16 044 0 gusting 2 27.2
2014-Jul-21 12:06 070 1 gusting 5 27.8
2014-Jul-21 11:56 079 0 gusting 6 28.3
2014-Jul-21 11:46 075 1 gusting 4 27.2
2014-Jul-21 11:36 068 1 gusting 2 27.8
2014-Jul-21 11:26 070 0 gusting 5 28.3
2014-Jul-21 11:16 023 1 gusting 6 28.9
2014-Jul-21 10:56 063 1 gusting 6 28.3
2014-Jul-21 10:46 109 1 gusting 4 27.8
2014-Jul-21 10:36 057 1 gusting 6 28.9
2014-Jul-21 10:26 090 2 gusting 8 28.9
2014-Jul-21 10:16 057 0 gusting 2 28.3
2014-Jul-21 10:06 069 2 gusting 8 28.3
2014-Jul-21 09:56 122 1 gusting 4 27.8
2014-Jul-21 09:46 075 1 gusting 5 27.8
2014-Jul-21 09:36 068 2 gusting 6 27.2
2014-Jul-21 09:26 063 1 gusting 2 26.7
2014-Jul-21 09:16 074 0 gusting 4 26.7
2014-Jul-21 09:06 340 0 gusting 2 25.6
2014-Jul-21 08:46 059 0 gusting 2 24.4
2014-Jul-21 08:16 355 0 gusting 2 24.4
2014-Jul-21 08:06 089 25.0
2014-Jul-21 07:56 075 0 gusting 2 24.4
2014-Jul-21 07:46 315 0 gusting 2 23.9
2014-Jul-21 07:36 097 23.3
2014-Jul-21 07:26 082 0 gusting 1 23.3
2014-Jul-21 07:16 099 0 gusting 1 22.8
2014-Jul-21 07:06 101 22.2
2014-Jul-21 06:56 053 0 gusting 1 21.7
2014-Jul-21 06:46 064 0 gusting 1 21.7
2014-Jul-21 06:36 064 21.1
2014-Jul-21 06:26 064 0 gusting 1 20.6
2014-Jul-21 06:16 064 20.0
2014-Jul-21 06:06 064 0 gusting 1 18.9
2014-Jul-21 05:56 064 16.7
2014-Jul-21 05:46 046 0 gusting 1 16.1
2014-Jul-21 05:36 046 15.6
2014-Jul-21 05:26 046 15.0
2014-Jul-21 05:16 046 15.0
2014-Jul-21 05:06 046 14.4
2014-Jul-21 04:56 046 14.4
2014-Jul-21 04:46 046 14.4
2014-Jul-21 04:36 046 13.9
2014-Jul-21 04:26 046 13.9
2014-Jul-21 04:16 046 13.9
2014-Jul-21 04:06 046 13.9
2014-Jul-21 03:56 046 13.9
2014-Jul-21 03:46 046 13.9
2014-Jul-21 03:26 046 13.9
2014-Jul-21 03:16 046 13.9
2014-Jul-21 03:06 046 13.9
2014-Jul-21 02:56 046 13.9
2014-Jul-21 02:46 046 13.9
2014-Jul-21 02:36 046 13.9
2014-Jul-21 02:26 046 13.9
2014-Jul-21 02:16 046 13.9
2014-Jul-21 02:06 046 14.4
2014-Jul-21 01:56 046 14.4
2014-Jul-21 01:46 046 14.4
2014-Jul-21 01:36 046 14.4
2014-Jul-21 01:26 046 14.4
2014-Jul-21 01:16 046 15.0
2014-Jul-21 01:06 046 15.0
2014-Jul-21 00:56 046 15.6
2014-Jul-21 00:46 046 15.6
2014-Jul-21 00:36 046 15.6
2014-Jul-21 00:26 046 16.1
2014-Jul-21 00:16 046 16.1
2014-Jul-21 00:06 046 16.7
2014-Jul-20 23:56 046 16.7
2014-Jul-20 23:46 046 16.7
2014-Jul-20 23:36 046 17.2
2014-Jul-20 23:16 046 17.8
2014-Jul-20 23:06 046 0 gusting 0 17.8
2014-Jul-20 22:46 046 17.8
2014-Jul-20 22:36 046 18.3
2014-Jul-20 22:26 046 18.3
2014-Jul-20 22:16 046 18.3
2014-Jul-20 22:06 047 18.9
2014-Jul-20 21:56 047 0 gusting 1 18.9
2014-Jul-20 21:36 047 19.4
2014-Jul-20 21:16 047 20.0
2014-Jul-20 20:56 047 0 gusting 1 20.6
2014-Jul-20 20:46 047 21.1
2014-Jul-20 20:36 047 21.7
2014-Jul-20 20:26 047 21.7
2014-Jul-20 20:16 047 22.2
2014-Jul-20 20:06 047 22.2
2014-Jul-20 19:56 047 22.8
2014-Jul-20 19:46 047 23.3
2014-Jul-20 19:36 047 23.3
2014-Jul-20 19:26 047 23.9
2014-Jul-20 19:16 047 23.9
2014-Jul-20 19:06 077 24.4
2014-Jul-20 18:56 078 0 gusting 2 24.4
2014-Jul-20 18:36 080 25.0
2014-Jul-20 18:06 080 26.1
2014-Jul-20 17:56 080 0 gusting 2 26.7
2014-Jul-20 17:46 088 0 gusting 1 26.7
2014-Jul-20 17:36 111 0 gusting 2 26.7
2014-Jul-20 17:26 042 27.2
2014-Jul-20 17:16 042 27.2
2014-Jul-20 17:06 036 27.8